Location: Zagreb
(45.8000°N, 16.0000°E)
Time: 20:59:35
(UTC+01:00)

CUTE-I - Pass Details

Date: 05 November 2020
Orbit: 811 x 824 km, 98.7° (Epoch: 01 December)

Event Time Altitude Azimuth Distance (km) Brightness Sun altitude
Rises 17:48:09 0° 180° (S) 3,318 ? -12.8°
Reaches altitude 10° 17:50:33 10° 186° (S) 2,391 ? -13.2°
Maximum altitude 17:55:39 49° 260° (W) 1,045 ? -14.1°
Drops below altitude 10° 18:00:49 10° 335° (NNW) 2,413 ? -15.0°
Sets 18:03:16 0° 341° (NNW) 3,352 ? -15.4°
